Location: Camp Crooked Creek
(37.9149°N, 85.6607°W)
Time: 15:09:53
(UTC-04:00)

Lacrosse 4 - Visible Passes

Search period start: 22 May 2017 00:00
Search period end: 01 June 2017 00:00
Orbit: 673 x 680 km, 68.0° (Epoch: 25 February)

Date Brightness Start Highest point End Pass type
(mag) Time Alt. Az. Time Alt. Az. Time Alt. Az.
22 May 4.2 00:21:28 12° ENE 00:21:28 12° ENE 00:21:58 10° NE visible
22 May 3.2 01:59:43 32° NNW 01:59:43 32° NNW 02:03:08 10° N visible
23 May 3.2 00:55:09 32° NE 00:55:09 32° NE 00:57:42 10° NNE visible
23 May 4.2 02:33:23 13° WNW 02:34:12 14° NW 02:36:41 10° NNW visible
23 May 4.1 23:50:32 13° ENE 23:50:32 13° ENE 23:51:10 10° NE visible
24 May 3.1 01:28:46 35° NW 01:28:46 35° NW 01:32:26 10° N visible
25 May 2.9 00:24:03 37° NE 00:24:03 37° NE 00:26:59 10° NNE visible
25 May 4.2 02:02:18 13° WNW 02:03:27 14° NW 02:06:04 10° NNW visible
25 May 3.8 23:19:16 14° ENE 23:19:16 14° ENE 23:20:22 10° ENE visible
26 May 2.9 00:57:29 38° NW 00:57:29 38° NW 01:01:44 10° N visible
26 May 2.2 23:52:34 49° NE 23:52:34 49° NE 23:56:14 10° NNE visible
27 May 4.2 01:30:48 12° WNW 01:32:42 15° NW 01:35:28 10° NNW visible
27 May 3.4 22:47:31 18° E 22:47:31 18° E 22:49:33 10° ENE visible
28 May 2.8 00:25:43 37° W 00:26:31 41° WNW 00:31:02 10° NNE visible
28 May 1.6 23:20:26 60° SE 23:20:46 63° ESE 23:25:30 10° NNE visible
29 May 4.4 00:59:03 10° W 01:01:56 16° NW 01:04:49 10° NNW visible
29 May 3.1 22:14:52 19° ESE 22:15:24 19° ESE 22:18:44 10° ENE visible
29 May 2.8 23:53:02 21° WSW 23:55:46 42° WNW 00:00:20 10° NNE visible
30 May 1.7 22:46:57 21° S 22:50:03 59° ESE 22:54:45 10° NE visible
31 May 4.4 00:28:11 10° W 00:31:11 16° NW 00:34:11 10° N visible
31 May 3.2 21:41:30 10° SSE 21:44:41 18° ESE 21:47:54 10° ENE visible
31 May 2.8 23:20:29 10° SW 23:25:02 44° WNW 23:29:38 10° NNE visible
